Regional Weather Roundup
Issued by NWS

Home | Current Version | Previous Version | Graphics & Text | Print | Product List | Glossary On
Versions: 1 2 3 4 5 6 7 8 9 10 11 12 13 14 15 16 17 18 19 20 21 22 23 24 25 26 27 28 29 30 31 32 33 34 35 36 37 38 39 40 41 42 43 44 45 46 47 48 49 50
000
ASUS44 KMEG 012010
RWRTN
TENNESSEE HOURLY STATE WEATHER ROUNDUP
NATIONAL WEATHER SERVICE MEMPHIS TN
300 PM CDT TUE SEP 01 2015

TNZ002-004-019-021-049-052-054-088>092-012100-
WEST TENNESSEE

CITY           SKY/WX    TMP DP  RH WIND       PRES   REMARKS
MEMPHIS INTL   PTSUNNY   92  63  38 VRB7      30.07F HX  93
NWS MEMPHIS      N/A     90 N/A N/A MISG        N/A
JACKSON        PTSUNNY   87  68  52 CALM      30.08F HX  90
DYERSBURG      MOSUNNY   88  70  55 CALM      30.08F HX  92
UNION CITY     PTSUNNY   88  68  51 CALM      30.08F HX  91
PARIS          SUNNY     86  64  48 VRB3      30.11F
LEXINGTON      MOSUNNY   90  66  45 CALM      30.08F HX  92
$$

TNZ008-025-027-028-033-062-065-066-012100-
NORTH MIDDLE TENNESSEE

CITY           SKY/WX    TMP DP  RH WIND       PRES   REMARKS
NASHVILLE      CLOUDY    89  64  43 SE5       30.10F HX  90
CLARKSVILLE    MOSUNNY   89  64  43 VRB6      30.09F HX  90
SMYRNA         PTSUNNY   94  68  42 CALM      30.11S HX  98
COOKEVILLE     MOSUNNY   90  70  51 VRB3      30.11F HX  95
CROSSVILLE     MOSUNNY   82  65  56 SE6       30.16F
$$

TNZ061-075-076-078-094-096-097-012100-
SOUTH MIDDLE TENNESSEE

CITY           SKY/WX    TMP DP  RH WIND       PRES   REMARKS
FAYETTEVILLE   MOSUNNY   82  64  54 CALM      30.12F
TULLAHOMA      MOSUNNY   84  64  51 N3        30.14S
WINCHESTER     MOSUNNY   88  66  48 CALM      30.12S HX  90
MCMINNVILLE    MOSUNNY   86  70  58 NE3       30.12F HX  90
COLUMBIA       PTSUNNY   88  70  55 SE3       30.10S HX  92
SHELBYVILLE    SUNNY     90  70  51 NE6       30.12F HX  95
$$

TNZ017-018-042-046-047-012100-
NORTHEAST TENNESSEE

CITY           SKY/WX    TMP DP  RH WIND       PRES   REMARKS
TRI CITIES     PTSUNNY   87  62  43 VRB3      30.13F
ELIZABETHTON   CLEAR     84  63  48 CALM      30.13F
$$

TNZ012-013-036-069-073-074-012100-
CENTRAL EAST TENNESSEE

CITY           SKY/WX    TMP DP  RH WIND       PRES   REMARKS
KNOXVILLE      PTSUNNY   89  63  41 NW5       30.10F HX  90
OAK RIDGE      PTSUNNY   88  64  44 MISG      30.12F
GATLINBURG     CLEAR     90  61  37 NE9       30.09F
MORRISTOWN     CLEAR     88  64  45 VRB3      30.13F
$$

TNZ083-085-099-012100-
SOUTHEAST TENNESSEE

CITY           SKY/WX    TMP DP  RH WIND       PRES   REMARKS
CHATTANOOGA    PTSUNNY   89  66  46 N6        30.09F HX  91
$$

SKY/WX REPORTED AS FAIR MEANS FEW OR NO CLOUDS BELOW
12 THOUSAND FEET.




USA.gov is the U.S. government's official web portal to all federal, state and local government web resources and services.